Tracking 35035 objects as of 16-Aug-2026
HD Live streaming from Space Station
objects crossing your sky now

COSMOS 410 DEB


COSMOS 410 DEB is no longer on orbit


NORAD ID: 5228
Int'l Code: 1971-040C
Launch date: May 6, 1971
Source: Commonwealth of Independent States (former USSR) (CIS)
Launch site: TYURATAM MISSILE AND SPACE COMPLEX (TTMTR)
Decay date: 1971-05-25

Note: This is SATELLITE DEBRIS
Your satellite tracking list
Your tracking list is empty




NASA's NSSDC Master Catalog

Two Line Element Set (TLE):
1 05228U 71040  C 71144.42884190  .04461032 +00000-0 +00000-0 0  9992
2 05228 064.9574 286.6259 0002900 030.0501 330.0803 16.41693687002945
Source of the keplerian elements: AFSPC